Вернуться в каталог

FENGYUN 1C DEB

АктивенPO
NORAD 36682·DEBRIS·🇨🇳 China

Запущен May 10, 1999 с Taiyuan Satellite Launch Center

Loading…

Ближайшие Пролёты (ближайшие 24 часа)

TLE

СвежийSource: Space-Track

Эпоха: Sep 12, 2026, 02:43 UTC

1 36682U 99025DZC 26255.11339045  .00000734  00000-0  71868-3 0  9993
2 36682  98.4634 131.9528 0231059 266.7623  90.7071 13.70784474651373

Отслеживайте FENGYUN 1C DEB в реальном времени с AllMySat

Download on the App Store